Flag for U.S.A. Weather past 2 weeks in Lincoln, Nebraska, U.S.A.

Now
59 °F

Clear.


Feels Like: 57 °F
Forecast: 55 / 81 °F
Wind: 12 mph from Northeast

Location: Lincoln Municipal Airport

Current Time: Jul 29, 2014 at 2:09:14 AM

Latest Report: Jul 29, 2014 at 12:54 AM


Visibility: 10 mi

Pressure: 30.18 "Hg

Humidity: 84%

Dew point: 54 °F

Location of LincolnLocation

Historic Weather in Lincoln — Graph

°F

Lincoln temperature yesterday

Maximum temperature yesterday: 80 °F (at 5:54 PM)
Minimum temperature yesterday: 57 °F (at 3:54 AM)
Average temperature yesterday: 69 °F

Past Weeks' High & Low Weather Summary

 TemperatureHumidityPressure
High101 °F (Jul 21, 5:54 PM)91% (Jul 26, 1:54 AM)30.30 "Hg (Jul 26, 1:54 AM)
Low49 °F (Jul 16, 5:54 AM)32% (Jul 16, 2:54 PM)29.69 "Hg (Jul 25, 1:54 PM)
Average75 °F62%29.99 "Hg
* Reported Jul 14 12:54 AM — Jul 29 12:54 AM, Lincoln, Weather by CustomWeather, © 2014

Note: Actual official high and low records may vary slightly from our data, if they occured in-between our weather recording intervals... More about our weather records

Advertising

Lincoln weather history for previous 24 hours

 ConditionsComfort  
Time TempWeatherWind HumidityBarometerVisibility
12:54 AM
Jul 29
59 °FClear.12 mph84%30.18 "Hg10 mi
11:54 PM
Jul 28
61 °FClear.5 mph75%30.19 "Hg10 mi
10:54 PM62 °FClear.6 mph75%30.19 "Hg10 mi
9:54 PM66 °FClear.5 mph63%30.18 "Hg10 mi
8:54 PM69 °FSunny.6 mph59%30.18 "Hg10 mi
7:54 PM76 °FSunny.9 mph45%30.18 "Hg10 mi
6:54 PM78 °FSunny.14 mph39%30.18 "Hg10 mi
5:54 PM80 °FPassing clouds.13 mph38%30.19 "Hg10 mi
4:54 PM79 °FScattered clouds.12 mph41%30.21 "Hg10 mi
3:54 PM78 °FScattered clouds.14 mph40%30.23 "Hg10 mi
2:54 PM78 °FPartly sunny.10 mph42%30.23 "Hg10 mi
1:54 PM78 °FPartly sunny.8 mph42%30.24 "Hg10 mi
12:54 PM79 °FPassing clouds.15 mph41%30.26 "Hg10 mi
11:54 AM75 °FScattered clouds.14 mph48%30.27 "Hg10 mi
10:54 AM74 °FScattered clouds.13 mph50%30.28 "Hg10 mi
9:54 AM71 °FScattered clouds.14 mph55%30.27 "Hg10 mi
8:57 AM68 °FScattered clouds.10 mph63%30.30 "Hg10 mi
7:54 AM63 °FSunny.8 mph75%30.25 "Hg10 mi
6:54 AM60 °FClear.7 mph80%30.24 "Hg10 mi
5:54 AM61 °FClear.7 mph78%30.23 "Hg10 mi
4:54 AM61 °FClear.6 mph78%30.22 "Hg10 mi
3:54 AM57 °FClear.3 mph87%30.21 "Hg10 mi
2:54 AM63 °FClear.9 mph78%30.20 "Hg10 mi
Weather by CustomWeather, © 2014

See weather overviewHow to use our weather pages